Stündliche Wetter Aalsmeer

Heute, 27 Februar, Samstag

Zeit Temperatur Niederschläge Wind Luftdruck Luftfeuchtigkeit
00:00 +5°C° 0 mm 1 m/S 779 mmHg 88%
01:00 +5°C° 0 mm 1 m/S 779 mmHg 89%
02:00 +5°C° 0 mm 1 m/S 779 mmHg 89%
03:00 +5°C° 0 mm 1 m/S 779 mmHg 90%
04:00 +4°C° 0 mm 1 m/S 779 mmHg 89%
05:00 +4°C° 0 mm 1 m/S 779 mmHg 89%
06:00 +4°C° 0 mm 1 m/S 780 mmHg 89%
07:00 +5°C° 0 mm 1 m/S 780 mmHg 84%
08:00 +7°C° 0 mm 1 m/S 780 mmHg 79%
09:00 +8°C° 0 mm 1 m/S 780 mmHg 74%
10:00 +9°C° 0 mm 1 m/S 780 mmHg 68%
11:00 +10°C° 0 mm 1 m/S 780 mmHg 61%
12:00 +12°C° 0 mm 1 m/S 781 mmHg 54%
13:00 +12°C° 0 mm 1 m/S 780 mmHg 54%
14:00 +12°C° 0 mm 1 m/S 780 mmHg 54%
15:00 +12°C° 0 mm 2 m/S 780 mmHg 54%
16:00 +9°C° 0 mm 2 m/S 780 mmHg 61%
17:00 +8°C° 0 mm 2 m/S 780 mmHg 67%
18:00 +7°C° 0 mm 2 m/S 779 mmHg 73%
19:00 +6°C° 0 mm 2 m/S 780 mmHg 76%
20:00 +6°C° 0 mm 2 m/S 780 mmHg 79%
21:00 +5°C° 0 mm 2 m/S 780 mmHg 82%
22:00 +6°C° 0 mm 1 m/S 780 mmHg 83%
23:00 +6°C° 0 mm 1 m/S 780 mmHg 85%

Morgen, 28 Februar, Sonntag

Zeit Temperatur Niederschläge Wind Luftdruck Luftfeuchtigkeit
00:00 +5°C° 0 mm 1 m/S 780 mmHg 86%
01:00 +5°C° 0 mm 1 m/S 779 mmHg 86%
02:00 +5°C° 0 mm 1 m/S 779 mmHg 87%
03:00 +5°C° 0 mm 1 m/S 779 mmHg 88%
04:00 +5°C° 0 mm 1 m/S 779 mmHg 89%
05:00 +5°C° 0 mm 1 m/S 779 mmHg 89%
06:00 +3°C° 0 mm 2 m/S 779 mmHg 90%
07:00 +5°C° 0 mm 2 m/S 778 mmHg 86%
08:00 +6°C° 0 mm 2 m/S 778 mmHg 82%
09:00 +7°C° 0 mm 2 m/S 778 mmHg 78%
10:00 +8°C° 0 mm 2 m/S 778 mmHg 73%
11:00 +9°C° 0 mm 2 m/S 778 mmHg 68%
12:00 +12°C° 0 mm 2 m/S 778 mmHg 62%
13:00 +12°C° 0 mm 2 m/S 778 mmHg 62%
14:00 +12°C° 0 mm 2 m/S 777 mmHg 62%
15:00 +12°C° 0 mm 2 m/S 777 mmHg 62%
16:00 +10°C° 0 mm 3 m/S 777 mmHg 68%
17:00 +8°C° 0 mm 3 m/S 777 mmHg 75%
18:00 +7°C° 0 mm 3 m/S 777 mmHg 81%
19:00 +7°C° 0 mm 3 m/S 777 mmHg 84%
20:00 +5°C° 0 mm 3 m/S 777 mmHg 86%
21:00 +5°C° 0 mm 3 m/S 777 mmHg 89%
22:00 +5°C° 0 mm 3 m/S 777 mmHg 89%
23:00 +4°C° 0 mm 3 m/S 777 mmHg 89%

übermorgen, 1 März, Montag

Zeit Temperatur Niederschläge Wind Luftdruck Luftfeuchtigkeit
00:00 +4°C° 0 mm 3 m/S 777 mmHg 89%
01:00 +3°C° 0 mm 3 m/S 777 mmHg 88%
02:00 +3°C° 0 mm 3 m/S 776 mmHg 87%
03:00 +4°C° 0 mm 2 m/S 776 mmHg 86%
04:00 +3°C° 0 mm 2 m/S 776 mmHg 86%
05:00 +2°C° 0 mm 3 m/S 776 mmHg 85%
06:00 +2°C° 0 mm 3 m/S 776 mmHg 85%
07:00 +3°C° 0 mm 3 m/S 776 mmHg 81%
08:00 +4°C° 0 mm 3 m/S 776 mmHg 77%
09:00 +5°C° 0 mm 3 m/S 776 mmHg 73%
10:00 +7°C° 0 mm 3 m/S 776 mmHg 68%
11:00 +8°C° 0 mm 4 m/S 775 mmHg 62%
12:00 +10°C° 0 mm 4 m/S 775 mmHg 57%
13:00 +10°C° 0 mm 4 m/S 775 mmHg 57%
14:00 +11°C° 0 mm 4 m/S 774 mmHg 57%
15:00 +11°C° 0 mm 4 m/S 774 mmHg 57%
16:00 +10°C° 0 mm 4 m/S 774 mmHg 62%
17:00 +8°C° 0 mm 4 m/S 774 mmHg 67%
18:00 +6°C° 0 mm 4 m/S 774 mmHg 72%
19:00 +6°C° 0 mm 4 m/S 774 mmHg 74%
20:00 +5°C° 0 mm 4 m/S 774 mmHg 76%
21:00 +5°C° 0 mm 4 m/S 774 mmHg 78%
22:00 +4°C° 0 mm 3 m/S 773 mmHg 80%
23:00 +4°C° 0 mm 3 m/S 773 mmHg 83%

2 März, Dienstag

Zeit Temperatur Niederschläge Wind Luftdruck Luftfeuchtigkeit
00:00 +4°C° 0 mm 3 m/S 773 mmHg 85%
01:00 +3°C° 0 mm 3 m/S 773 mmHg 86%
02:00 +3°C° 0 mm 3 m/S 773 mmHg 87%
03:00 +3°C° 0 mm 3 m/S 772 mmHg 89%
04:00 +3°C° 0 mm 3 m/S 772 mmHg 89%
05:00 +3°C° 0 mm 3 m/S 772 mmHg 89%
06:00 +3°C° 0 mm 2 m/S 772 mmHg 89%
07:00 +4°C° 0 mm 3 m/S 772 mmHg 85%
08:00 +5°C° 0 mm 3 m/S 772 mmHg 81%
09:00 +7°C° 0 mm 3 m/S 772 mmHg 76%
10:00 +9°C° 0 mm 3 m/S 772 mmHg 71%
11:00 +10°C° 0 mm 2 m/S 772 mmHg 66%
12:00 +13°C° 0 mm 2 m/S 772 mmHg 61%
13:00 +13°C° 0 mm 2 m/S 772 mmHg 61%
14:00 +13°C° 0 mm 2 m/S 772 mmHg 60%
15:00 +14°C° 0 mm 2 m/S 771 mmHg 59%
16:00 +12°C° 0 mm 1 m/S 771 mmHg 64%
17:00 +11°C° 0 mm 1 m/S 771 mmHg 70%
18:00 +10°C° 0 mm 1 m/S 771 mmHg 75%
19:00 +9°C° 0 mm 1 m/S 771 mmHg 77%
20:00 +9°C° 0 mm 1 m/S 771 mmHg 78%
21:00 +8°C° 0 mm 1 m/S 772 mmHg 79%
22:00 +7°C° 0 mm 2 m/S 772 mmHg 80%
23:00 +7°C° 0 mm 2 m/S 771 mmHg 81%

3 März, Mittwoch

Zeit Temperatur Niederschläge Wind Luftdruck Luftfeuchtigkeit
00:00 +7°C° 0 mm 2 m/S 771 mmHg 83%
01:00 +7°C° 0 mm 2 m/S 771 mmHg 84%
02:00 +6°C° 0 mm 2 m/S 771 mmHg 86%
03:00 +6°C° 0 mm 2 m/S 771 mmHg 87%
04:00 +6°C° 0 mm 2 m/S 771 mmHg 88%
05:00 +6°C° 0 mm 2 m/S 771 mmHg 90%
06:00 +6°C° 0 mm 2 m/S 771 mmHg 91%
07:00 +7°C° 0 mm 2 m/S 771 mmHg 87%
08:00 +8°C° 0 mm 2 m/S 771 mmHg 82%
09:00 +9°C° 0 mm 2 m/S 771 mmHg 78%
10:00 +10°C° 0 mm 3 m/S 771 mmHg 73%
11:00 +12°C° 0 mm 3 m/S 771 mmHg 68%
12:00 +13°C° 0 mm 3 m/S 771 mmHg 62%
13:00 +13°C° 0 mm 3 m/S 770 mmHg 63%
14:00 +13°C° 0 mm 3 m/S 770 mmHg 64%
15:00 +13°C° 0 mm 3 m/S 770 mmHg 65%
16:00 +12°C° 0 mm 3 m/S 770 mmHg 71%
17:00 +10°C° 0 mm 3 m/S 769 mmHg 77%
18:00 +9°C° 0 mm 3 m/S 769 mmHg 83%
19:00 +9°C° 0 mm 3 m/S 769 mmHg 85%
20:00 +8°C° 0 mm 3 m/S 769 mmHg 87%
21:00 +8°C° 0 mm 3 m/S 769 mmHg 88%
22:00 +8°C° 0 mm 3 m/S 769 mmHg 90%
23:00 +8°C° 0 mm 3 m/S 769 mmHg 92%

4 März, Donnerstag

Zeit Temperatur Niederschläge Wind Luftdruck Luftfeuchtigkeit
00:00 +8°C° 0 mm 3 m/S 768 mmHg 94%
01:00 +7°C° 0 mm 3 m/S 768 mmHg 93%
02:00 +7°C° 0 mm 3 m/S 768 mmHg 92%
03:00 +6°C° 0 mm 4 m/S 768 mmHg 91%
04:00 +7°C° 0 mm 3 m/S 768 mmHg 90%
05:00 +5°C° 0 mm 3 m/S 768 mmHg 90%
06:00 +4°C° 0 mm 3 m/S 768 mmHg 90%
07:00 +5°C° 0 mm 3 m/S 768 mmHg 86%
08:00 +7°C° 0 mm 3 m/S 769 mmHg 82%
09:00 +8°C° 0 mm 3 m/S 769 mmHg 78%
10:00 +8°C° 0 mm 3 m/S 769 mmHg 73%
11:00 +9°C° 0 mm 3 m/S 769 mmHg 69%
12:00 +10°C° 0 mm 3 m/S 769 mmHg 64%
13:00 +9°C° 0 mm 3 m/S 769 mmHg 65%
14:00 +9°C° 0 mm 3 m/S 769 mmHg 65%
15:00 +8°C° 0 mm 4 m/S 768 mmHg 66%
16:00 +8°C° 0 mm 3 m/S 768 mmHg 71%
17:00 +7°C° 0 mm 3 m/S 768 mmHg 77%
18:00 +4°C° 0 mm 3 m/S 768 mmHg 82%
19:00 +4°C° 0 mm 3 m/S 768 mmHg 84%
20:00 +5°C° 0 mm 2 m/S 769 mmHg 85%
21:00 +4°C° 0 mm 2 m/S 769 mmHg 87%
22:00 +4°C° 0 mm 2 m/S 769 mmHg 89%
23:00 +4°C° 0 mm 2 m/S 769 mmHg 91%
Mehr zeigen

Wir brauchen deine Erlaubnis

Meteoprog und unser Service Anbieter werden persönliche Daten aufbewahren, so wie Cookies, Geräte Bezeichnung oder ähnliche Technologien von deinem Gerät und Prozess, so wie Persönliche Daten Inhalte und Werbungen, genauso wie social Media und den Verkehr zu analysieren.

  • Aufbewahrung und/oder Zugang zu deiner Geräte Informationen.

    Cookies, Geräte Bezeichnung oder andere Informationen, können aufbewahrt oder Zugang zu deinem Gerät erhalten, für den Grund, der oben angegeben wird.

  • Personalisierte Werbung und Inhalte, Messungen, Einblick in das Publikum und Produkt Entwicklung.

    Werbungen und Inhalte können personalisiert werden, basierend auf ein Profil. Mehr Daten können besser personalisierte Werbungen und Inhalte hinzufügen. Werbung und Inhalte können gezeigt und gemessen werden. Einblicke über das Publikum, welche die Werbung gesehen haben und den Inhalt, können abgeleitet werden. So wie Daten können genutzt werden, um es zu verbessern oder die Benutzer Erfahrung zu verbessern das System und die Software.

Wenn du “Ich stimme zu” klickst, erlaubst du uns, die Cookies zu benutzen die Geräte Bezeichnung, den Web oder ähnliche Technologien zu benutzen. Deine Settings, können in deinem Gerät bei deinem Browser geändert werden.

Für den bestimmten Zweck, berechtigten Interessen beruhen darauf, mehr als auf den Inhalt. Du kannst mehr darüber in unseren Privaten und Cookie Politik lesen.